Location: Góry Miechowskie
(50.3599°N, 20.1803°E)
Time: 21:11:52
(UTC+00:00)

Tiros 1 despin weight - Pass Details

Date: 21 September 2024
Orbit: 572 x 614 km, 48.2° (Epoch: 12 October)

Event Time Altitude Azimuth Distance (km) Brightness Sun altitude
Rises 22:11:35 0° 191° (SSW) 2,827 - -39.2°
Reaches altitude 10° 22:15:08 10° 162° (SSE) 1,941 - -39.3°
Maximum altitude 22:16:57 12° 138° (SE) 1,798 - -39.3°
Drops below altitude 10° 22:18:47 10° 113° (ESE) 1,956 - -39.3°
Sets 22:22:23 0° 84° (E) 2,874 - -39.4°
